[[{"header":{"parameterUnit":"m.s-1","parameterCategory":2,"la1":30.2992,"la2":30.254,"lo1":-89.0895,"lo2":-89.0443,"dy":0.0025,"dx":0.0025,"nx":19,"ny":19,"refTime":"2026-03-26T09:00:00:Z","depth":"0","parameterNumber":2,"parameterNumberName":"U-component_of_CURRENTS"},"data":[0,0,0,-0.1437,-0.1438,-0.1483,-0.1483,-0.1479,-0.1479,0,0,0,0,0,0,0,0,0,0,0,-0.141,-0.141,-0.1437,-0.1438,-0.1483,-0.1483,-0.1479,-0.1479,0,0,0,0,0,0,0,0,0,0,0,-0.141,-0.141,-0.141,-0.1438,-0.1483,-0.1483,-0.1479,-0.1461,0,0,0,0,0,0,0,0,0,0,-0.1424,-0.1403,-0.141,-0.141,-0.1438,-0.1483,-0.1483,-0.146,-0.1462,-0.1442,0,-0.1442,0,-0.1464,-0.1478,-0.1478,0,0,0,-0.1437,-0.1402,-0.1421,-0.141,-0.1439,-0.1483,-0.1462,-0.1462,-0.1463,-0.1443,-0.1443,-0.1443,-0.1464,-0.1477,-0.1477,-0.1445,-0.1445,0,0,-0.1435,-0.1412,-0.142,-0.1422,-0.1441,-0.1461,-0.1464,-0.1463,-0.1455,-0.1443,-0.1444,-0.1464,-0.1477,-0.1477,-0.1445,-0.1445,0,0,0,-0.1428,-0.141,-0.143,-0.1421,-0.1436,-0.1462,-0.1466,-0.1455,-0.1463,-0.1444,-0.1464,-0.1477,-0.1477,-0.1445,-0.1445,-0.1439,0,0,0,-0.1426,-0.1407,-0.1429,-0.1415,-0.1437,-0.1454,-0.1457,-0.1463,-0.1464,-0.1464,-0.1477,-0.1477,-0.1445,-0.1445,-0.1439,-0.1442,0,0,0,-0.1409,-0.1405,-0.1409,-0.1414,-0.1437,-0.1455,-0.1463,-0.1464,-0.1476,-0.1477,-0.1477,-0.1446,-0.1445,-0.144,-0.1442,-0.1357,0,0,0,-0.1387,-0.1385,-0.1408,-0.1411,-0.1436,-0.1458,-0.1464,-0.1471,-0.1471,-0.1477,-0.1445,-0.1445,-0.144,-0.1443,-0.1358,-0.0895,-0.085,0,0,-0.1374,-0.1382,-0.1386,-0.1409,-0.1429,-0.1452,-0.1459,-0.1459,-0.1457,-0.1442,-0.1442,-0.1439,-0.1442,-0.1357,-0.0872,-0.0826,0,0,0,-0.1377,-0.1377,-0.1386,-0.1404,-0.1428,-0.1444,-0.1455,-0.145,-0.1441,-0.1456,-0.1432,-0.1435,-0.138,-0.1105,-0.107,-0.092,-0.1443,-0.1443,-0.1443,-0.1327,-0.1356,-0.1362,-0.1396,-0.1409,-0.1433,-0.1435,-0.1429,-0.1429,-0.1419,-0.1424,-0.1351,-0.1058,-0.1026,-0.0881,-0.1415,-0.1415,-0.1415,-0.1415,-0.1305,-0.1303,-0.1344,-0.1358,-0.1385,-0.1392,-0.1409,-0.1411,-0.1377,-0.1407,-0.1353,-0.1106,-0.0985,-0.0844,-0.1414,-0.1415,-0.1415,-0.1415,-0.1415,-0.1264,-0.1265,-0.1286,-0.1308,-0.1328,-0.1361,-0.1304,-0.1375,-0.1357,-0.1338,-0.097,-0.0964,-0.0839,-0.1282,-0.1281,-0.1281,-0.1281,-0.128,-0.128,-0.1198,-0.1224,-0.1212,-0.1252,-0.1254,-0.1253,-0.1252,-0.1159,-0.0978,-0.0915,-0.0909,-0.075,-0.1309,-0.1314,-0.1275,-0.1276,-0.1276,-0.1277,-0.1277,-0.1115,-0.1134,-0.1107,-0.1103,-0.1073,-0.0932,-0.0967,-0.0576,-0.0504,-0.029,-0.0175,-0.0651,-0.0594,-0.0616,-0.0602,-0.0382,-0.0382,-0.0382,-0.0382,-0.1041,-0.1058,-0.0967,-0.0904,-0.0819,-0.0754,-0.0279,-0.0004,0.0258,0.0411,0.0264,0.0348,0.0306,0.0411,0.0366,0.0397,0.0865,0.0866,0.0867,-0.0963,-0.0952,-0.0833,-0.0771,-0.0666,-0.0446,0.005,0.0462,0.0856,0.0907,0.0368,0.0315,0.0407,0.0328,0.0463,0.0387,0.0425,0,0]},{"header":{"parameterUnit":"m.s-1","parameterCategory":2,"la1":30.2992,"la2":30.254,"lo1":-89.0895,"lo2":-89.0443,"dy":0.0025,"dx":0.0025,"nx":19,"ny":19,"refTime":"2026-03-26T09:00:00:Z","depth":"0","parameterNumber":3,"parameterNumberName":"V-component_of_CURRENTS"},"data":[0,0,0,-0.0282,-0.0281,-0.0204,-0.0204,-0.0075,-0.0074,0,0,0,0,0,0,0,0,0,0,0,-0.0309,-0.0309,-0.0283,-0.0281,-0.0204,-0.0204,-0.0075,-0.0074,0,0,0,0,0,0,0,0,0,0,0,-0.0309,-0.0309,-0.0309,-0.0281,-0.0204,-0.0204,-0.0076,-0.0137,0,0,0,0,0,0,0,0,0,0,-0.0214,-0.0252,-0.0309,-0.0309,-0.0281,-0.0205,-0.0204,-0.014,-0.0133,-0.0107,0,-0.0106,0,-0.0093,-0.0066,-0.0066,0,0,0,-0.0265,-0.0258,-0.0237,-0.0309,-0.028,-0.0205,-0.0234,-0.0137,-0.0129,-0.0097,-0.0104,-0.0099,-0.0091,-0.0066,-0.0065,-0.0037,-0.0037,0,0,-0.0269,-0.0289,-0.0243,-0.0233,-0.0274,-0.0237,-0.0232,-0.0132,-0.0129,-0.0103,-0.0096,-0.0089,-0.0065,-0.0064,-0.0036,-0.0037,0,0,0,-0.0292,-0.0292,-0.0275,-0.0238,-0.023,-0.0235,-0.023,-0.0133,-0.0127,-0.0095,-0.0087,-0.0064,-0.0063,-0.0035,-0.0036,-0.0112,0,0,0,-0.0294,-0.0307,-0.0277,-0.0287,-0.0233,-0.0185,-0.0233,-0.0134,-0.0123,-0.0088,-0.0064,-0.0062,-0.0035,-0.0036,-0.0109,-0.0114,0,0,0,-0.031,-0.0308,-0.0304,-0.0289,-0.0263,-0.0187,-0.0175,-0.0131,-0.0119,-0.0066,-0.0061,-0.0034,-0.0036,-0.0106,-0.011,-0.0001,0,0,0,-0.0326,-0.034,-0.0305,-0.032,-0.0264,-0.025,-0.0176,-0.0151,-0.0116,-0.0064,-0.0035,-0.0036,-0.0105,-0.0107,-0.0001,0.0286,0.0308,0,0,-0.0356,-0.0344,-0.0355,-0.0322,-0.0333,-0.0258,-0.0258,-0.0177,-0.0125,-0.0061,-0.006,-0.011,-0.011,-0.0001,0.0208,0.0233,0,0,0,-0.0373,-0.0384,-0.0381,-0.0377,-0.0348,-0.0316,-0.0246,-0.0211,-0.016,-0.0112,-0.0116,-0.0112,-0.0041,0.0132,0.015,0.0242,-0.0042,-0.0042,-0.0042,-0.0432,-0.0423,-0.0448,-0.0434,-0.0418,-0.0356,-0.0322,-0.0261,-0.0211,-0.0212,-0.0181,-0.0158,0.0018,0.0037,0.0124,-0.0201,-0.0202,-0.0202,-0.0202,-0.0495,-0.0514,-0.05,-0.0521,-0.0481,-0.0468,-0.0386,-0.0345,-0.0247,-0.0251,-0.0177,0.0033,0.0055,0.014,-0.0207,-0.0206,-0.0205,-0.0205,-0.0205,-0.0542,-0.0552,-0.0561,-0.0583,-0.0578,-0.0526,-0.0409,-0.0378,-0.0292,-0.0253,0.0061,0.0067,0.016,-0.0174,-0.0174,-0.0173,-0.0173,-0.0173,-0.0173,-0.0582,-0.0594,-0.0623,-0.0643,-0.0639,-0.0568,-0.0415,-0.0264,-0.0039,0.0039,0.0043,0.0194,-0.0146,-0.0126,-0.0166,-0.0167,-0.0168,-0.0169,-0.0169,-0.0631,-0.0634,-0.0668,-0.0674,-0.061,-0.0431,-0.0301,0.0146,0.0298,0.0476,0.0535,0.0238,0.0327,0.0316,0.035,0.0435,0.0435,0.0435,0.0435,-0.0656,-0.0665,-0.0657,-0.0623,-0.051,-0.0347,0.0148,0.052,0.0811,0.092,0.0824,0.0846,0.0818,0.0933,0.0907,0.0951,0.1187,0.1187,0.1188,-0.0675,-0.0672,-0.0628,-0.0574,-0.0446,-0.0143,0.0332,0.0839,0.1213,0.1212,0.0886,0.0854,0.0866,0.0814,0.0975,0.0932,0.0996,0,0]}],[{"header":{"parameterUnit":"m.s-1","parameterCategory":2,"la1":30.2992,"la2":30.254,"lo1":-89.0895,"lo2":-89.0443,"dy":0.0025,"dx":0.0025,"nx":19,"ny":19,"refTime":"2026-03-26T09:00:00:Z","depth":"2","parameterNumber":2,"parameterNumberName":"U-component_of_CURRENTS"},"data":[0,0,0,-0.145,-0.1451,-0.1494,-0.1494,-0.1504,-0.1504,0,0,0,0,0,0,0,0,0,0,0,-0.1426,-0.1426,-0.145,-0.1451,-0.1494,-0.1494,-0.1504,-0.1504,0,0,0,0,0,0,0,0,0,0,0,-0.1426,-0.1426,-0.1427,-0.1452,-0.1494,-0.1494,-0.1504,-0.1482,0,0,0,0,0,0,0,0,0,0,-0.1446,-0.1428,-0.1426,-0.1427,-0.1452,-0.1494,-0.1494,-0.1482,-0.1484,-0.1472,0,-0.1474,0,-0.1493,-0.1504,-0.1504,0,0,0,-0.145,-0.1426,-0.1443,-0.1427,-0.1452,-0.1494,-0.1474,-0.1483,-0.1485,-0.1474,-0.1475,-0.1476,-0.1493,-0.1504,-0.1503,-0.1489,-0.1489,0,0,-0.1448,-0.143,-0.1442,-0.1444,-0.1457,-0.1473,-0.1476,-0.1485,-0.148,-0.1475,-0.1476,-0.1493,-0.1503,-0.1503,-0.1489,-0.1489,0,0,0,-0.1442,-0.1428,-0.1445,-0.1443,-0.1456,-0.1474,-0.1477,-0.1479,-0.1487,-0.1477,-0.1493,-0.1503,-0.1503,-0.1489,-0.1489,-0.1495,0,0,0,-0.144,-0.1425,-0.1444,-0.1433,-0.1456,-0.1474,-0.1471,-0.1486,-0.1488,-0.1493,-0.1503,-0.1503,-0.149,-0.1489,-0.1495,-0.1498,0,0,0,-0.1426,-0.1424,-0.1428,-0.1432,-0.1453,-0.1475,-0.1483,-0.1487,-0.1498,-0.1504,-0.1503,-0.149,-0.1489,-0.1495,-0.1498,-0.1457,0,0,0,-0.1407,-0.1407,-0.1427,-0.1433,-0.1453,-0.1479,-0.1483,-0.1496,-0.15,-0.1503,-0.1489,-0.1489,-0.1495,-0.1498,-0.1457,-0.1367,-0.1356,0,0,-0.1399,-0.1405,-0.1411,-0.1431,-0.1455,-0.1473,-0.1489,-0.1494,-0.149,-0.1483,-0.1484,-0.1495,-0.1498,-0.1457,-0.1349,-0.1339,0,0,0,-0.1404,-0.1407,-0.1417,-0.1436,-0.1461,-0.1482,-0.1495,-0.1493,-0.1489,-0.1492,-0.1487,-0.1489,-0.1462,-0.1409,-0.1401,-0.1488,-0.1488,-0.1488,-0.1488,-0.1365,-0.1393,-0.1404,-0.1439,-0.1456,-0.1485,-0.1492,-0.1489,-0.1488,-0.1481,-0.1487,-0.1453,-0.1397,-0.139,-0.148,-0.148,-0.148,-0.148,-0.148,-0.1352,-0.1355,-0.1397,-0.1416,-0.1448,-0.1463,-0.1486,-0.1487,-0.1471,-0.1482,-0.1455,-0.1411,-0.1381,-0.148,-0.148,-0.148,-0.148,-0.148,-0.148,-0.1319,-0.1322,-0.1346,-0.1377,-0.1407,-0.1444,-0.1447,-0.1469,-0.1464,-0.1458,-0.1364,-0.1362,-0.1446,-0.1429,-0.1429,-0.1429,-0.1429,-0.1429,-0.1429,-0.1261,-0.129,-0.1288,-0.1334,-0.1343,-0.1373,-0.1416,-0.1411,-0.1375,-0.1356,-0.1354,-0.1435,-0.1437,-0.1442,-0.1426,-0.1426,-0.1427,-0.1427,-0.1427,-0.1192,-0.1209,-0.1204,-0.121,-0.1239,-0.1212,-0.1293,-0.1266,-0.1266,-0.1225,-0.1283,-0.1287,-0.1269,-0.1274,-0.1274,-0.1216,-0.1216,-0.1216,-0.1216,-0.1127,-0.1144,-0.1107,-0.1096,-0.1097,-0.1126,-0.1041,-0.1031,-0.1071,-0.105,-0.1057,-0.1054,-0.1066,-0.1037,-0.1048,-0.1044,-0.0926,-0.0925,-0.0925,-0.1062,-0.1068,-0.1011,-0.1021,-0.1015,-0.0999,-0.0866,-0.0744,-0.076,-0.0915,-0.1024,-0.1193,-0.1209,-0.122,-0.1194,-0.1204,-0.1205,0,0]},{"header":{"parameterUnit":"m.s-1","parameterCategory":2,"la1":30.2992,"la2":30.254,"lo1":-89.0895,"lo2":-89.0443,"dy":0.0025,"dx":0.0025,"nx":19,"ny":19,"refTime":"2026-03-26T09:00:00:Z","depth":"2","parameterNumber":3,"parameterNumberName":"V-component_of_CURRENTS"},"data":[0,0,0,-0.0344,-0.0343,-0.0286,-0.0285,-0.0179,-0.0179,0,0,0,0,0,0,0,0,0,0,0,-0.0366,-0.0366,-0.0344,-0.0343,-0.0286,-0.0285,-0.018,-0.0179,0,0,0,0,0,0,0,0,0,0,0,-0.0366,-0.0366,-0.0366,-0.0343,-0.0286,-0.0285,-0.018,-0.0229,0,0,0,0,0,0,0,0,0,0,-0.0288,-0.032,-0.0366,-0.0366,-0.0343,-0.0286,-0.0285,-0.0232,-0.0226,-0.0199,0,-0.0198,0,-0.0187,-0.0172,-0.0171,0,0,0,-0.0334,-0.0325,-0.0307,-0.0366,-0.0342,-0.0286,-0.0309,-0.0229,-0.0222,-0.0191,-0.0196,-0.0193,-0.0186,-0.0171,-0.017,-0.0107,-0.0107,0,0,-0.0337,-0.0354,-0.0312,-0.0303,-0.0336,-0.0311,-0.0307,-0.0225,-0.0223,-0.0196,-0.019,-0.0184,-0.017,-0.0169,-0.0107,-0.0107,0,0,0,-0.0352,-0.0356,-0.0341,-0.0308,-0.0301,-0.031,-0.0305,-0.0226,-0.0221,-0.0189,-0.0183,-0.017,-0.0168,-0.0107,-0.0107,-0.017,0,0,0,-0.0354,-0.0366,-0.0343,-0.0351,-0.0303,-0.0268,-0.0309,-0.0227,-0.0217,-0.0183,-0.017,-0.0167,-0.0107,-0.0107,-0.0168,-0.0187,0,0,0,-0.0367,-0.0367,-0.0363,-0.0353,-0.0331,-0.0269,-0.0259,-0.0224,-0.0213,-0.0171,-0.0167,-0.0107,-0.0107,-0.0166,-0.0184,-0.0147,0,0,0,-0.0382,-0.0392,-0.0363,-0.0374,-0.0332,-0.0312,-0.0259,-0.0236,-0.0206,-0.0169,-0.0107,-0.0107,-0.0166,-0.0183,-0.0146,-0.0125,-0.0128,0,0,-0.0406,-0.0396,-0.0403,-0.0376,-0.0378,-0.0318,-0.0306,-0.0244,-0.0197,-0.013,-0.0128,-0.0169,-0.0184,-0.0146,-0.0138,-0.014,0,0,0,-0.0417,-0.0425,-0.042,-0.0413,-0.0384,-0.0352,-0.0291,-0.0256,-0.0202,-0.0181,-0.0155,-0.0163,-0.0137,-0.0123,-0.0124,-0.0108,-0.0108,-0.0108,-0.0108,-0.0467,-0.0455,-0.047,-0.0451,-0.0432,-0.037,-0.0336,-0.0273,-0.023,-0.0217,-0.0205,-0.0207,-0.0195,-0.0195,-0.0197,-0.0198,-0.0198,-0.0198,-0.0198,-0.0517,-0.053,-0.051,-0.0522,-0.0479,-0.0457,-0.0371,-0.0332,-0.0259,-0.0242,-0.0213,-0.0179,-0.02,-0.0203,-0.0202,-0.0201,-0.0201,-0.0201,-0.02,-0.0557,-0.0562,-0.0567,-0.0577,-0.0564,-0.0509,-0.0472,-0.0392,-0.031,-0.0291,-0.0217,-0.0215,-0.0224,-0.0261,-0.0261,-0.0261,-0.0261,-0.0261,-0.0261,-0.0595,-0.0599,-0.0627,-0.0633,-0.0637,-0.0614,-0.0523,-0.0469,-0.0343,-0.0267,-0.0266,-0.0227,-0.0225,-0.0225,-0.026,-0.026,-0.026,-0.0261,-0.0261,-0.064,-0.0643,-0.0685,-0.0701,-0.0712,-0.0685,-0.0613,-0.0468,-0.0379,-0.0306,-0.0231,-0.0232,-0.0194,-0.0192,-0.019,-0.0214,-0.0214,-0.0214,-0.0214,-0.0668,-0.0675,-0.0729,-0.0759,-0.0773,-0.0718,-0.0609,-0.045,-0.0295,-0.0211,-0.0211,-0.0217,-0.0219,-0.0182,-0.018,-0.0178,-0.0198,-0.0198,-0.0198,-0.0693,-0.0709,-0.075,-0.0784,-0.0799,-0.0741,-0.059,-0.0321,-0.0142,-0.0199,-0.0223,-0.021,-0.022,-0.0222,-0.0164,-0.0162,-0.0158,0,0]}],[{"header":{"parameterUnit":"m.s-1","parameterCategory":2,"la1":30.2992,"la2":30.254,"lo1":-89.0895,"lo2":-89.0443,"dy":0.0025,"dx":0.0025,"nx":19,"ny":19,"refTime":"2026-03-26T09:00:00:Z","depth":"4","parameterNumber":2,"parameterNumberName":"U-component_of_CURRENTS"},"data":[0,0,0,-0.1155,-0.1157,-0.1254,-0.1254,-0.1304,-0.1304,0,0,0,0,0,0,0,0,0,0,0,-0.112,-0.1121,-0.1154,-0.1157,-0.1253,-0.1254,-0.1304,-0.1304,0,0,0,0,0,0,0,0,0,0,0,-0.112,-0.1121,-0.1122,-0.1157,-0.1253,-0.1254,-0.1304,-0.1249,0,0,0,0,0,0,0,0,0,0,-0.1164,-0.1146,-0.1121,-0.1122,-0.1158,-0.1253,-0.1254,-0.1247,-0.1253,-0.1239,0,-0.1259,0,-0.1282,-0.1306,-0.1306,0,0,0,-0.1157,-0.1142,-0.1166,-0.1122,-0.1159,-0.1253,-0.121,-0.1251,-0.1257,-0.1246,-0.126,-0.1262,-0.1282,-0.1306,-0.1306,-0.1332,-0.1332,0,0,-0.1151,-0.1138,-0.1162,-0.1169,-0.1188,-0.1207,-0.1213,-0.1255,-0.1262,-0.126,-0.1264,-0.1283,-0.1306,-0.1306,-0.1332,-0.1332,0,0,0,-0.1136,-0.1135,-0.1159,-0.1167,-0.119,-0.121,-0.1217,-0.1261,-0.1269,-0.1264,-0.1284,-0.1306,-0.1307,-0.1332,-0.1332,-0.1345,0,0,0,-0.1133,-0.1126,-0.1157,-0.115,-0.119,-0.1237,-0.1221,-0.1266,-0.1272,-0.1283,-0.1306,-0.1307,-0.1332,-0.1332,-0.1344,-0.1346,0,0,0,-0.1115,-0.1124,-0.1136,-0.1149,-0.1191,-0.1237,-0.1249,-0.1268,-0.1283,-0.1306,-0.1307,-0.1332,-0.1332,-0.1344,-0.1345,-0.1308,0,0,0,-0.1096,-0.1111,-0.1136,-0.1161,-0.119,-0.1239,-0.1249,-0.129,-0.1312,-0.1307,-0.1332,-0.1332,-0.1344,-0.1345,-0.1308,-0.115,0,0,0,-0.1099,-0.1111,-0.1125,-0.115,-0.1193,-0.1225,-0.1267,-0.1301,-0.1308,-0.1312,-0.1314,-0.1345,-0.1345,-0.1308,-0.1165,0,0,0,0,-0.1116,-0.1127,-0.1144,-0.118,-0.1219,-0.1261,-0.1299,-0.131,-0.1335,-0.1323,-0.1346,-0.1345,-0.1321,-0.123,-0.1333,-0.1333,-0.1333,-0.1333,-0.1333,-0.1093,-0.1124,-0.1152,-0.1196,-0.1232,-0.1288,-0.1314,-0.1335,-0.134,-0.1352,-0.1357,-0.134,-0.1246,-0.136,-0.136,-0.136,-0.136,-0.136,-0.136,-0.109,-0.1101,-0.1157,-0.1196,-0.1247,-0.1287,-0.1332,-0.1347,-0.1353,-0.1367,-0.1343,-0.1253,-0.1361,-0.1361,-0.1361,-0.1361,-0.1361,-0.1361,-0.1361,-0.1061,-0.1068,-0.1112,-0.1171,-0.1229,-0.1288,-0.1297,-0.1344,-0.1355,-0.1354,-0.1221,-0.1333,-0.1328,-0.1329,-0.1329,-0.1329,-0.1329,-0.1329,-0.1329,-0.0999,-0.1044,-0.1067,-0.1141,-0.1171,-0.1216,-0.1275,-0.1266,-0.1295,-0.121,-0.1344,-0.1328,-0.1329,-0.1325,-0.1327,-0.1327,-0.1327,-0.1327,-0.1328,-0.0936,-0.0966,-0.0987,-0.1016,-0.1071,-0.1088,-0.1173,-0.1125,-0.1088,-0.1036,-0.1118,-0.1129,-0.1099,-0.1105,-0.1093,-0.1025,-0.1023,-0.1021,0,-0.0877,-0.0899,-0.09,-0.0909,-0.0908,-0.0992,-0.0909,-0.0925,-0.0949,-0.0915,-0.1085,-0.1179,-0.1185,-0.1156,-0.1158,-0.1144,0,0,0,-0.0824,-0.0835,-0.0803,-0.0831,-0.082,-0.0816,-0.0876,-0.0829,-0.0965,-0.0889,-0.0968,-0.0982,-0.1206,-0.132,-0.13,-0.1302,-0.1294,0,0]},{"header":{"parameterUnit":"m.s-1","parameterCategory":2,"la1":30.2992,"la2":30.254,"lo1":-89.0895,"lo2":-89.0443,"dy":0.0025,"dx":0.0025,"nx":19,"ny":19,"refTime":"2026-03-26T09:00:00:Z","depth":"4","parameterNumber":3,"parameterNumberName":"V-component_of_CURRENTS"},"data":[0,0,0,-0.0281,-0.0281,-0.0253,-0.0253,-0.0172,-0.0171,0,0,0,0,0,0,0,0,0,0,0,-0.0295,-0.0295,-0.0281,-0.0281,-0.0253,-0.0253,-0.0172,-0.0171,0,0,0,0,0,0,0,0,0,0,0,-0.0295,-0.0295,-0.0295,-0.0281,-0.0253,-0.0253,-0.0172,-0.0203,0,0,0,0,0,0,0,0,0,0,-0.0235,-0.026,-0.0295,-0.0295,-0.0281,-0.0253,-0.0253,-0.0205,-0.0201,-0.0174,0,-0.0177,0,-0.0172,-0.0165,-0.0165,0,0,0,-0.0275,-0.0263,-0.0252,-0.0295,-0.0281,-0.0253,-0.0264,-0.0203,-0.0198,-0.0168,-0.0176,-0.0173,-0.0171,-0.0164,-0.0164,-0.0088,-0.0088,0,0,-0.0276,-0.0289,-0.0256,-0.025,-0.0282,-0.0265,-0.0263,-0.0201,-0.0201,-0.0176,-0.0171,-0.0169,-0.0164,-0.0163,-0.0088,-0.0088,0,0,0,-0.0285,-0.029,-0.0281,-0.0253,-0.0251,-0.0264,-0.0262,-0.0204,-0.02,-0.0171,-0.0168,-0.0163,-0.0162,-0.0088,-0.0088,-0.0135,0,0,0,-0.0285,-0.0295,-0.0282,-0.0289,-0.0253,-0.0234,-0.0266,-0.0205,-0.0197,-0.0169,-0.0163,-0.0161,-0.0088,-0.0088,-0.0134,-0.0162,0,0,0,-0.0294,-0.0296,-0.0295,-0.029,-0.028,-0.0235,-0.0228,-0.0203,-0.0196,-0.0165,-0.0161,-0.0088,-0.0088,-0.0133,-0.016,-0.0149,0,0,0,-0.0304,-0.0313,-0.0296,-0.0305,-0.028,-0.0263,-0.0229,-0.0213,-0.0191,-0.0163,-0.0088,-0.0088,-0.0133,-0.0159,-0.0149,-0.0173,0,0,0,-0.032,-0.0315,-0.032,-0.0304,-0.0303,-0.0266,-0.0249,-0.0208,-0.017,-0.0105,-0.0103,-0.0134,-0.016,-0.0149,-0.0147,0,0,0,0,-0.0329,-0.0334,-0.0331,-0.0327,-0.0305,-0.028,-0.0236,-0.0206,-0.0157,-0.0156,-0.0112,-0.0126,-0.0118,-0.0129,-0.0086,-0.0086,-0.0086,-0.0086,-0.0086,-0.0362,-0.0353,-0.0362,-0.0346,-0.0332,-0.0284,-0.0257,-0.0202,-0.0167,-0.0149,-0.0149,-0.0152,-0.0164,-0.0124,-0.0125,-0.0125,-0.0125,-0.0125,-0.0125,-0.0393,-0.0399,-0.0387,-0.0396,-0.0364,-0.0344,-0.0269,-0.0239,-0.0183,-0.0161,-0.015,-0.0158,-0.0129,-0.0128,-0.0128,-0.0127,-0.0127,-0.0127,-0.0127,-0.0416,-0.0418,-0.0428,-0.0439,-0.0432,-0.0389,-0.0366,-0.0302,-0.023,-0.0221,-0.0205,-0.0172,-0.0185,-0.021,-0.021,-0.021,-0.021,-0.021,-0.021,-0.0437,-0.0443,-0.0475,-0.0484,-0.0498,-0.0489,-0.0425,-0.0388,-0.0309,-0.0258,-0.0232,-0.0179,-0.0177,-0.0188,-0.0211,-0.0211,-0.0211,-0.0211,-0.0211,-0.0459,-0.0474,-0.0518,-0.0544,-0.0572,-0.0556,-0.0512,-0.0423,-0.0378,-0.0323,-0.026,-0.0257,-0.0238,-0.0233,-0.0246,-0.0288,-0.0288,-0.0288,0,-0.0479,-0.0487,-0.0556,-0.0599,-0.0619,-0.0591,-0.0541,-0.0486,-0.0381,-0.0366,-0.0372,-0.0304,-0.0301,-0.0283,-0.0279,-0.0297,0,0,0,-0.0496,-0.0517,-0.0568,-0.0616,-0.0637,-0.0565,-0.0523,-0.0488,-0.0393,-0.0366,-0.0299,-0.0296,-0.0303,-0.0215,-0.0178,-0.0175,-0.0191,0,0]}]]